This is the latest recevied weather packets stored in our database for station/object KC3QJO. If no packets are shown the sender has not sent any weather packets the latest 10 day(s).
| Time | Temp. | Humidity | Pressure | Rain* | Wind** | Luminosity | Snow |
|---|---|---|---|---|---|---|---|
| 1777479356 | 13.33° C | 62% | 1012.7 hPa | 0 mm | - | 432 W/m² | - |
| 1777478151 | 13.33° C | 63% | 1013 hPa | 0 mm | - | 281 W/m² | - |
| 1777477250 | 12.78° C | 62% | 1013.3 hPa | 0 mm | - | 248 W/m² | - |
| 1777476653 | 12.78° C | 64% | 1013.3 hPa | 0 mm | - | 308 W/m² | - |
| 1777471851 | 11.11° C | 62% | 1013.5 hPa | 0 mm | - | 237 W/m² | - |
| 1777471550 | 11.67° C | 61% | 1013.4 hPa | 0 mm | - | 200 W/m² | - |
| 1777471256 | 11.67° C | 63% | 1013.4 hPa | 0 mm | - | 287 W/m² | - |
| 1777470353 | 11.11° C | 64% | 1013.7 hPa | 0 mm | - | 195 W/m² | - |
| 1777469757 | 11.11° C | 65% | 1013.6 hPa | 0 mm | - | 221 W/m² | - |
| 1777467353 | 10.56° C | 66% | 1014 hPa | 0 mm | - | 104 W/m² | - |
| 1777465858 | 10.56° C | 67% | 1014.4 hPa | 0 mm | - | 111 W/m² | - |
| 1777465252 | 10.56° C | 67% | 1014.4 hPa | 0 mm | - | 74 W/m² | - |
| 1777464354 | 10.56° C | 67% | 1014.6 hPa | 0 mm | - | 77 W/m² | - |
| 1777461955 | 10° C | 68% | 1014.7 hPa | 0 mm | - | 60 W/m² | - |
| 1777458954 | 10° C | 70% | 1014.5 hPa | 0 mm | - | 19 W/m² | - |
| 1777456551 | 10° C | 70% | 1014.5 hPa | 0 mm | - | 0 W/m² | - |
| 1777453553 | 10.56° C | 70% | 1014.7 hPa | 0 mm | - | 0 W/m² | - |
| 1777453263 | 10.56° C | 69% | 1014.8 hPa | 0 mm | - | 0 W/m² | - |
| 1777449654 | 10.56° C | 69% | 1015.1 hPa | 0 mm | - | 0 W/m² | - |
| 1777448151 | 11.11° C | 70% | 1014.9 hPa | 0 mm | - | 0 W/m² | - |
| 1777447550 | 11.11° C | 70% | 1015.2 hPa | 0 mm | - | 0 W/m² | - |
| 1777446961 | 11.11° C | 72% | 1015.3 hPa | 0 mm | - | 0 W/m² | - |
| 1777446650 | 11.11° C | 72% | 1015.4 hPa | 0 mm | - | 0 W/m² | - |
| 1777445753 | 11.11° C | 72% | 1015.7 hPa | 0 mm | - | 0 W/m² | - |
* Rain latest hour (hover to see other rain measurements)
** Current wind speed in m/s (hover to see current wind gust speed)